www.pogodaiklimat.ru

Погода и климат >> Архив погоды >> Россия >> Чукотка >> Эгвекинот


ПОГОДА в Эгвекиноте

  • Прогноз погоды в Эгвекиноте
  • Монитор погоды в Эгвекиноте
  • Климат города

АРХИВ ПОГОДЫ в Эгвекиноте

Время (UTC), дата Ветер
(напр.,м/с)
 
Видим.   Явления Облачность Т
(С)
Тd
(С)
f
(%)
Тe
(С)
Тes
(С)
Комфортность P
(гПа)
Po
(гПа)
Тmin
(С)
Tmax
(С)
R
(мм)
R24
(мм)
S
(см)
15 19.06 Ю 2
{3}
500 м слабый дождь ?/? +5.8 +5.3 97 +3 +3 1008.3 1005.6
18 19.06 Ю 2
{3}
500 м туман {дождь} ?/? +5.8 +5.4 97 +3 +3 1007.3 1004.6 +4.7
21 19.06 Ю 2
{3}
10 км {туман} 10/10 330 м
[St]
+7.4 +5.4 87 +5 +5 1007.4 1004.6 +4.7
00 20.06 Ю 3
{5}
10 км {туман} 9/9 450 м
[St]
+9.3 +4.8 73 +7 +8 1006.2 1003.5
03 20.06 Ю 4
{6}
4000 м туман на расстоянии 8/0
[Ac trans Ci fib]
+10.2 +5.3 72 +8 +12 1004.9 1002.2
06 20.06 Ю 5
{8}
4000 м туман на расстоянии 8/4 300 м
[Sc Ac trans]
+7.7 +6.0 89 +4 +4 1004.8 1002.1 +10.5
09 20.06 Ю 4
{6}
200 м туман ?/? +6.3 +6.3 100 +2 +2 1005.3 1002.5
12 20.06 Ю 2
{5}
500 м туман {дождь} ?/? +6.1 +6.1 100 +3 +3 1005.3 1002.6
15 20.06 Ю 3
{4}
500 м слабый дождь {туман} туман ?/? +6.0 +6.0 100 +2 +2 1005.4 1002.6
18 20.06 Ю 3
{4}
2000 м в посл. час туман {дождь} 10/10 240 м
[St]
+6.2 +5.7 97 +3 +3 1005.7 1002.9 +5.9 0.3
21 20.06 Ю 4
{5}
10 км 10/10 450 м
[St]
+7.6 +5.4 86 +4 +4 1006.7 1003.9 +5.9
00 21.06 Ю 5
{7}
20 км 4/4 600 м
[Sc]
+10.4 +5.8 73 +8 +11 1007.0 1004.3
03 21.06 Ю 6
{8}
20 км 1/1 600 м
[Sc]
+12.0 +6.9 71 +9 +12 1007.0 1004.3
06 21.06 Ю 6
{8}
20 км ясно +12.3 +6.8 69 +10 +11 1008.1 1005.4 +12.6
09 21.06 Ю 4
{7}
20 км 5/5 600 м
[Sc]
+10.3 +7.4 82 +8 +8 1009.6 1006.9
12 21.06 Ю 4
{7}
20 км 10/9 630 м
[Cb cap]
+10.3 +7.7 84 +8 +8 1011.1 1008.4
15 21.06 ЮЗ 4
{7}
20 км 10/10 300 м
[St]
+8.8 +7.1 89 +6 +6 1012.5 1009.8
18 21.06 ЮЗ 1
{5}
20 км 10/10 300 м
[St]
+8.8 +7.1 89 +8 +8 1013.6 1010.9 +8.6
21 21.06 Ю 6
{9}
10 км в посл. час ливневой дождь 10/10 330 м
[Cb cap]
+8.3 +6.8 90 +4 +4 1015.3 1012.6 +8.3
00 22.06 ЮЗ 6
{11}
10 км {ливн. осадки} 10/10 400 м
[Cb cap]
+8.6 +5.7 82 +5 +5 1016.5 1013.8
03 22.06 Ю 5
{10}
10 км 10/10 570 м
[Cb cap]
+8.4 +5.8 84 +5 +5 1016.5 1013.8
06 22.06 Ю 6
{8}
10 км {ливн. осадки} 10/9 630 м
[Cb cap Ac und]
+8.1 +6.4 89 +4 +4 1016.2 1013.5 +8.9 0.6
09 22.06 Ю 5
{8}
4000 м слабый ливневой дождь 10/10 200 м
[Cb cap]
+7.3 +6.4 94 +3 +3 1016.5 1013.7
12 22.06 Ю 5
{7}
200 м дождь {ливн. осадки} туман ?/? +6.8 +6.8 100 +2 +2 1016.2 1013.4
15 22.06 Ю 3
{7}
500 м слабый дождь {туман} туман ?/? +6.5 +6.5 100 +3 +3 1015.5 1012.7
18 22.06 Ю 3
{6}
500 м слабый дождь {туман} туман ?/? +6.7 +6.7 100 +3 +3 1015.0 1012.2 +6.5 5
21 22.06 Ю 3
{7}
4000 м слабый дождь {ливн. осадки} 10/9 300 м
[Frnb As op]
+7.8 +6.9 94 +5 +5 1014.1 1011.3 +6.5
00 23.06 Ю 5
{7}
2000 м ливневой дождь {снег} 10/10 300 м
[Cb cap]
+7.6 +6.9 95 +4 +4 1013.1 1010.3
03 23.06 Ю 3
{7}
4000 м слабый ливневой дождь {снег} 10/10 300 м
[Cb cap]
+7.5 +6.9 96 +4 +4 1012.0 1009.3
06 23.06 Ю 3
{5}
4000 м слабый ливневой дождь 10/10 300 м
[Cb cap]
+7.7 +7.1 96 +5 +5 1010.9 1008.2 +8.5 12
09 23.06 штиль 0
{5}
1000 м дымка {ливн. осадки, дождь} 10/10 90 м
[St]
+7.0 +6.5 97 +6 +6 1010.8 1008.1
12 23.06 С 2
{5}
1000 м туман {ливн. осадки, дождь} 10/10 180 м
[Cb cap]
+7.1 +6.7 97 +5 +5 1010.5 1007.8
15 23.06 Ю 2
{3}
1000 м туман {ливн. осадки, дождь} 10/10 100 м
[Cb cap]
+6.7 +6.3 97 +4 +4 1010.1 1007.3
18 23.06 Ю 2
{3}
1000 м слабый ливневой дождь 10/10 100 м
[Cb cap]
+6.6 +6.3 98 +4 +4 1010.2 1007.4 +6.1 8
21 23.06 Ю 5
{8}
4000 м туман на расстоянии {ливн. осадки} 10/10 210 м
[Cb cap]
+7.1 +6.4 95 +3 +3 1010.5 1007.7 +6.1
00 24.06 Ю 6
{8}
10 км {ливн. осадки} 10/8 360 м
[Cb cap Ac und]
+9.0 +6.8 86 +5 +5 1010.2 1007.5
03 24.06 Ю 6
{9}
10 км в посл. час ливневой дождь 10/9 570 м
[Cb cap Ac und]
+10.0 +6.8 80 +7 +7 1009.9 1007.2
06 24.06 Ю 6
{10}
10 км {ливн. осадки} 10/9 570 м
[Cb cap Ac und]
+9.3 +6.7 84 +6 +6 1009.8 1007.1 +10.2 0.9
09 24.06 ЮЗ 5
{11}
10 км 10/8 570 м
[Cb cap Ac und]
+8.9 +6.1 83 +5 +5 1010.3 1007.6
12 24.06 ЮЗ 5
{9}
10 км 10/10 300 м
[Cb cap]
+7.9 +6.0 88 +4 +4 1010.8 1008.1
15 24.06 Ю 6
{12}
10 км 10/10 330 м
[Cb cap]
+7.0 +5.5 90 +2 +2 1011.0 1008.2
18 24.06 Ю 7
{12}
10 км 10/10 300 м
[Cb cap]
+6.5 +4.8 89 +1 +1 1011.1 1008.3 +6.5
21 24.06 Ю 7
{10}
10 км 10/8 500 м
[Cb cap Ac trans]
+6.8 +4.7 86 +2 +2 1011.5 1008.7 +6.5
00 25.06 Ю 6
{10}
10 км 10/8 500 м
[Cb cap]
+7.4 +5.2 86 +3 +4 1011.2 1008.5
03 25.06 Ю 5
{9}
4000 м слабый дождь {туман} 10/10 600 м
[Cb cap]
+6.8 +6.2 96 +2 +2 1011.2 1008.4
06 25.06 Ю 6
{9}
500 м слабый дождь {ливн. осадки} туман ?/? +6.9 +6.3 96 +2 +2 1010.8 1008.1 +7.4 0.1
09 25.06 Ю 5
{8}
500 м слабый дождь {туман} туман ?/? +6.6 +6.1 97 +2 +2 1011.3 1008.6
12 25.06 Ю 2
{6}
500 м слабый дождь {туман} туман ?/? +6.3 +5.8 97 +4 +4 1011.2 1008.4
15 25.06 Ю 3
{4}
500 м слабый дождь {туман} туман ?/? +6.7 +6.2 97 +3 +3 1010.4 1007.7
18 25.06 В 2
{4}
500 м слабый дождь {туман} туман ?/? +7.1 +6.5 96 +5 +5 1009.7 1007.0 +6.3 0.8
21 25.06 Ю 4
{7}
1000 м дождь {туман} 10/8 200 м
[Frnb As op]
+7.7 +7.1 96 +4 +4 1009.4 1006.7 +6.3
00 26.06 Ю 5
{10}
1000 м слабый дождь {морось} 10/9 200 м
[Frnb As op]
+7.3 +6.7 96 +3 +3 1009.1 1006.3
03 26.06 ЮВ 2
{8}
2000 м туман на расстоянии {дождь} 10/9 630 м
[St As op]
+7.3 +6.7 96 +5 +5 1008.1 1005.3
06 26.06 С 2
{5}
10 км слабый дождь 10/8 300 м
[Sc As op]
+7.8 +6.5 91 +6 +6 1006.7 1004.0 +7.8 7
09 26.06 С 4
{7}
10 км слабый дождь 10/8 1000 м
[Sc As op]
+7.1 +5.4 89 +3 +3 1006.2 1003.4

 

Местоположение метеостанции Эгвекинот (Чукотка, Россия): широта 66.35 долгота -179.00 высота над уровнем моря 22 м.

В архиве по умолчанию представлена погода в Эгвекиноте за последнюю неделю. Архивные данные за месяц целиком и за предыдущие месяцы, начиная с января 2011 года, Вы можете получить, выбрав интересующий диапазон дат из раскрывающегося списка и нажав кнопку "Ввод!".

Внимание! Время в таблицах - всемирное. Для получения местного времени необходимо прибавить поправку, которая в Эгвекиноте равна 12 ч.

Смотрите также архив погоды в соседних городах и на ближайших метеорологических станциях:

Погода на Мысе Ванкарем (Чукотка, Россия) (239 км)
Погода в Уэлене (Чукотка, Россия) (448 км)
Погода на Острове Врангеля (Чукотка, Россия) (517 км)

Пояснения к столбцам:

Ветер - указаны скорость ветра в м/с - средняя за 10 мин, порывы в срок и между сроками (в фигурных скобках) и направление, откуда дует ветер: С - северный, СВ - северо-восточный, В - восточный, ЮВ - юго-восточный, Ю - южный, ЮЗ - юго-западный, З - западный, СЗ - северо-западный.
Видимость - горизонтальная дальность видимости в метрах или километрах. При видимости от 1 до 10 км при отсутствии осадков обычно наблюдается дымка, при ухудшении видимости до 1 км и менее - туман. В сухую погоду видимость может ухудшаться дымом, пылью или мглою.
Явления - указаны атмосферные явления, наблюдавшиеся в срок или в последний час перед сроком; фигурными скобками обозначены явления, наблюдавшиеся между сроками (за 1-3 часа до срока); квадратными скобками обозначены град или гололедные отложения с указанием их диаметра в мм.
Облачность - указаны через наклонную черту общая и нижняя облачность в баллах и высота нижней границы облаков в метрах; квадратными скобками обозначены формы облаков: Ci - перистые, Cs - перисто-слоистые, Cc - перисто-кучевые, Ac - высококучевые, As - высокослоистые, Sc - слоисто-кучевые, Ns - слоисто-дождевые, Cu - кучевые, Cb - кучево-дождевые. Подробнее классификацию облаков см. в Атласе облаков (PDF).
T - Температура воздуха - температура, измеренная на высоте 2 м над землей.
Td - Температура точки росы - температура, при понижении до которой содержащийся в воздухе водяной пар достигнет насыщения.
f - Относительная влажность воздуха - влажноcть воздуха, измеренная на высоте 2 м над землей.
Te - Эффективная температура - температура, которую ощущает одетый по сезону человек в тени. Характеристика душности погоды. При расчете учитывается влияние влажности воздуха и скорости ветра на теплоощущения человека.
Tes - Эффективная температура на солнце - температура, которую ощущает человек, с поправкой на солнечный нагрев. Характеристика знойности погоды. Зависит от высоты солнца над горизонтом, облачности и скорости ветра. Ночью, в пасмурную погоду, а также при ветре 12 м/с и более поправка равна нулю.
P - Атмосферное давление - приведенное к уровню моря атмосферное давление.
Po - Атмосферное давление - измеренное на уровне метеостанции атмосферное давление.
Tmin - Минимальная температура - минимум температуры воздуха на высоте 2 м над землей.
Tmax - Максимальная температура - максимум температуры воздуха на высоте 2 м над землей.
R - Количество осадков - Количество выпавших осадков за период времени, мм. При наведении курсора мыши на число - период времени, за который выпало указанное количество осадков.
R24 - Количество осадков - Количество выпавших осадков за 24 часа, мм.
S - Снежный покров - Высота снежного покрова, см. При наведении курсора мыши на число - состояние снежного покрова и степень покрытия местности в баллах.